Richlands, VA

6:41 AM EST on December 13, 2017 (GMT -0500)
Tazewell County

Weather History for KJFZ - July, 2013

Change the Weather History Date:

Saturday, July 13, 2013

  Actual Average (KBLF) Record (KBLF)
Temperature  
Mean Temperature 68 °F -  
Max Temperature 76 °F 79 °F 91 °F (1993)
Min Temperature 60 °F 62 °F 53 °F (1999)
Cooling Degree Days 3    
Growing Degree Days 18 (Base 50)    
Moisture  
Dew Point 62 °F    
Average Humidity 81    
Maximum Humidity 97    
Minimum Humidity 61    
Precipitation  
Precipitation 0.00 in - - ()
Sea Level Pressure  
Sea Level Pressure 30.17 in    
Wind  
Wind Speed 7 mph (ESE)    
Max Wind Speed 14 mph    
Max Gust Speed 23 mph    
Visibility 10 miles    
Events Rain , Thunderstorm    
Averages and records for this station are not official NWS values.
T = Trace of Precipitation, MM = Missing Value Source: NWS Daily Summary

Daily Weather History Graph

Daily Weather History Graph

Search for Another Location

Airport or City:

Trip Planner

Search our weather history database for the weather conditions in past years. The results will help you decide how hot, cold, wet, or windy it might be!

Date:

Astronomy

Jul. 13, 2013 Rise Set
Actual Time 6:18 AM EDT 8:47 PM EDT
Civil Twilight 5:47 AM EDT 9:17 PM EDT
Nautical Twilight 5:10 AM EDT 9:54 PM EDT
Astronomical Twilight 4:29 AM EDT 10:36 PM EDT
Moon 11:24 AM EDT 11:36 PM EDT
Length of Visible Light 15h 29m
Length of Day
14h 29m
Waxing Crescent, 25% of the Moon is Illuminated
Jul 13
Waxing Crescent
Jul 15
First Quarter
Jul 22
Full
Jul 29
Last Quarter
Aug 6
New

Hourly Weather History & Observations

Time (EDT) Temp. Dew Point Humidity Pressure Visibility Wind Dir Wind Speed Gust Speed Precip Events Conditions
12:15 AM 61.7 °F 60.8 °F 97% 30.11 in 10.0 mi East 8.1 mph - N/A   Overcast
12:35 AM 62.1 °F 60.3 °F 94% 30.10 in 10.0 mi ESE 9.2 mph - N/A   Scattered Clouds
12:55 AM 62.6 °F 60.4 °F 93% 30.11 in 10.0 mi East 6.9 mph - N/A   Scattered Clouds
1:15 AM 63.3 °F 60.8 °F 91% 30.11 in 10.0 mi ENE 6.9 mph - N/A   Mostly Cloudy
1:35 AM 63.0 °F 60.4 °F 91% 30.12 in 10.0 mi East 5.8 mph - N/A   Overcast
1:55 AM 63.1 °F 60.3 °F 90% 30.12 in 10.0 mi East 4.6 mph - N/A   Mostly Cloudy
2:15 AM 62.8 °F 60.1 °F 91% 30.11 in 10.0 mi ESE 8.1 mph - N/A   Scattered Clouds
2:35 AM 61.3 °F 59.9 °F 95% 30.11 in 10.0 mi NE 6.9 mph - N/A   Clear
2:55 AM 61.7 °F 59.9 °F 94% 30.10 in 10.0 mi ESE 8.1 mph - N/A   Clear
3:15 AM 61.3 °F 59.5 °F 94% 30.10 in 10.0 mi ENE 3.5 mph - N/A   Clear
3:35 AM 61.5 °F 59.4 °F 93% 30.10 in 10.0 mi East 8.1 mph - N/A   Clear
3:55 AM 61.7 °F 59.0 °F 91% 30.11 in 10.0 mi ESE 6.9 mph - N/A   Scattered Clouds
4:15 AM 61.7 °F 59.0 °F 91% 30.10 in 10.0 mi ESE 8.1 mph - N/A   Mostly Cloudy
4:35 AM 62.2 °F 59.2 °F 90% 30.10 in 10.0 mi ESE 6.9 mph 16.1 mph N/A   Mostly Cloudy
4:55 AM 61.7 °F 59.2 °F 91% 30.09 in 10.0 mi ESE 4.6 mph - N/A   Scattered Clouds
5:15 AM 62.4 °F 59.0 °F 89% 30.10 in 10.0 mi Calm Calm - N/A   Clear
5:35 AM 60.8 °F 59.0 °F 94% 30.11 in 10.0 mi ESE 4.6 mph - N/A   Clear
5:55 AM 61.7 °F 59.2 °F 91% 30.11 in 10.0 mi SE 9.2 mph 16.1 mph N/A   Scattered Clouds
6:15 AM 61.9 °F 59.2 °F 91% 30.12 in 10.0 mi ESE 6.9 mph - N/A   Mostly Cloudy
6:35 AM 62.4 °F 59.0 °F 89% 30.13 in 10.0 mi SE 4.6 mph - N/A   Scattered Clouds
6:55 AM 62.6 °F 59.4 °F 89% 30.13 in 10.0 mi ESE 10.4 mph 16.1 mph N/A   Scattered Clouds
7:15 AM 62.4 °F 59.5 °F 90% 30.15 in 10.0 mi ESE 5.8 mph - N/A   Mostly Cloudy
7:35 AM 62.6 °F 59.4 °F 89% 30.15 in 10.0 mi ESE 5.8 mph 16.1 mph N/A   Mostly Cloudy
7:55 AM 63.3 °F 59.7 °F 88% 30.15 in 10.0 mi East 5.8 mph - N/A   Scattered Clouds
8:15 AM 65.1 °F 60.1 °F 84% 30.15 in 10.0 mi SE 8.1 mph - N/A Thunderstorm Clear
8:35 AM 64.6 °F 59.7 °F 84% 30.16 in 10.0 mi SE 8.1 mph 18.4 mph N/A   Scattered Clouds
8:55 AM 64.8 °F 60.1 °F 85% 30.16 in 10.0 mi ESE 10.4 mph 18.4 mph N/A   Scattered Clouds
9:15 AM 65.1 °F 60.4 °F 85% 30.18 in 10.0 mi SE 9.2 mph - N/A   Mostly Cloudy
9:35 AM 66.6 °F 61.3 °F 83% 30.18 in 10.0 mi SE 10.4 mph 17.3 mph N/A   Mostly Cloudy
9:55 AM 67.3 °F 61.0 °F 80% 30.18 in 10.0 mi SSE 9.2 mph 16.1 mph N/A   Scattered Clouds
10:15 AM 68.0 °F 61.3 °F 79% 30.19 in 10.0 mi SE 4.6 mph - N/A   Mostly Cloudy
10:35 AM 68.0 °F 61.7 °F 80% 30.19 in 10.0 mi ESE 5.8 mph 9.2 mph N/A   Overcast
10:55 AM 70.0 °F 62.1 °F 76% 30.19 in 10.0 mi ESE 9.2 mph - N/A   Overcast
11:15 AM 70.9 °F 62.1 °F 74% 30.19 in 10.0 mi East 8.1 mph 21.9 mph N/A   Overcast
11:35 AM 71.4 °F 62.1 °F 72% 30.19 in 10.0 mi ESE 5.8 mph 19.6 mph N/A   Mostly Cloudy
11:55 AM 72.1 °F 61.7 °F 70% 30.20 in 10.0 mi ESE 6.9 mph 16.1 mph N/A   Scattered Clouds
12:15 PM 72.3 °F 61.9 °F 70% 30.20 in 10.0 mi SE 9.2 mph 23.0 mph N/A   Mostly Cloudy
12:35 PM 72.9 °F 62.6 °F 70% 30.20 in 10.0 mi ESE 9.2 mph - N/A   Mostly Cloudy
12:55 PM 74.1 °F 62.6 °F 67% 30.20 in 10.0 mi ESE 10.4 mph 18.4 mph N/A   Mostly Cloudy
1:15 PM 74.3 °F 62.6 °F 67% 30.20 in 10.0 mi SE 8.1 mph 18.4 mph N/A   Scattered Clouds
1:35 PM 73.9 °F 62.6 °F 68% 30.19 in 10.0 mi SE 10.4 mph - N/A   Mostly Cloudy
1:55 PM 75.2 °F 62.4 °F 64% 30.19 in 10.0 mi SE 8.1 mph 23.0 mph N/A   Scattered Clouds
2:15 PM 75.7 °F 63.1 °F 65% 30.20 in 10.0 mi ESE 8.1 mph 17.3 mph N/A   Scattered Clouds
2:35 PM 75.6 °F 62.4 °F 64% 30.20 in 10.0 mi SE 13.8 mph 18.4 mph N/A   Mostly Cloudy
2:55 PM 76.6 °F 63.5 °F 64% 30.19 in 10.0 mi ESE 9.2 mph 17.3 mph N/A   Mostly Cloudy
3:15 PM 75.7 °F 63.0 °F 64% 30.19 in 10.0 mi ESE 5.8 mph 16.1 mph N/A   Mostly Cloudy
3:35 PM 76.5 °F 61.9 °F 61% 30.18 in 10.0 mi SE 11.5 mph 19.6 mph N/A   Mostly Cloudy
3:55 PM 76.8 °F 62.4 °F 61% 30.18 in 10.0 mi SE 9.2 mph - N/A   Scattered Clouds
4:15 PM 76.5 °F 63.5 °F 64% 30.18 in 10.0 mi SE 8.1 mph - N/A   Scattered Clouds
4:35 PM 75.9 °F 63.5 °F 65% 30.18 in 10.0 mi SE 10.4 mph 16.1 mph N/A   Scattered Clouds
4:55 PM 75.2 °F 63.7 °F 67% 30.19 in 10.0 mi ESE 6.9 mph 17.3 mph N/A   Mostly Cloudy
5:15 PM 74.7 °F 63.9 °F 69% 30.19 in 10.0 mi ESE 3.5 mph - N/A   Overcast
5:35 PM 73.4 °F 63.1 °F 70% 30.19 in 10.0 mi ESE 5.8 mph - N/A   Mostly Cloudy
5:55 PM 73.4 °F 63.1 °F 70% 30.19 in 10.0 mi SE 8.1 mph - N/A   Scattered Clouds
6:15 PM 72.7 °F 63.0 °F 71% 30.19 in 10.0 mi ESE 4.6 mph - N/A   Clear
6:35 PM 72.5 °F 63.0 °F 72% 30.19 in 10.0 mi ESE 9.2 mph 18.4 mph N/A   Clear
6:55 PM 72.7 °F 62.8 °F 71% 30.19 in 10.0 mi SE 6.9 mph - N/A   Clear
7:15 PM 73.4 °F 63.7 °F 71% 30.20 in 10.0 mi ESE 5.8 mph - N/A   Mostly Cloudy
7:35 PM 71.6 °F 63.3 °F 75% 30.21 in 10.0 mi ESE 4.6 mph - N/A   Overcast
7:55 PM 71.8 °F 63.7 °F 76% 30.21 in 10.0 mi ESE 6.9 mph - N/A   Mostly Cloudy
8:15 PM 68.9 °F 65.3 °F 88% 30.22 in 5.0 mi ESE 8.1 mph - N/A Rain Rain
8:35 PM 68.0 °F 65.3 °F 91% 30.21 in 10.0 mi ESE 9.2 mph - N/A   Overcast
8:55 PM 67.8 °F 65.3 °F 92% 30.22 in 10.0 mi ESE 9.2 mph - N/A   Overcast
9:15 PM 68.2 °F 64.8 °F 89% 30.22 in 10.0 mi SE 6.9 mph - N/A   Scattered Clouds
9:35 PM 68.5 °F 64.8 °F 88% 30.22 in 10.0 mi ESE 3.5 mph - N/A   Mostly Cloudy
9:55 PM 69.1 °F 64.4 °F 85% 30.22 in 10.0 mi ESE 8.1 mph - N/A   Mostly Cloudy
10:15 PM 69.1 °F 64.6 °F 86% 30.24 in 10.0 mi ENE 3.5 mph - N/A   Mostly Cloudy
10:35 PM 69.8 °F 64.4 °F 83% 30.24 in 10.0 mi ESE 6.9 mph - N/A   Overcast
10:55 PM 69.8 °F 64.6 °F 83% 30.24 in 10.0 mi ESE 10.4 mph - N/A   Overcast
11:15 PM 69.8 °F 64.6 °F 83% 30.23 in 10.0 mi ESE 6.9 mph - N/A   Mostly Cloudy
11:35 PM 69.8 °F 64.4 °F 83% 30.22 in 10.0 mi ESE 6.9 mph - N/A   Scattered Clouds
11:55 PM 69.8 °F 64.4 °F 83% 30.23 in 10.0 mi ESE 6.9 mph - N/A   Mostly Cloudy